sat.trackr.live / text

‹ back to catalog

STARLINK-34930

NORAD 65688 · 2025-212N

PAYLOAD ACTIVE UNKNOWN

§ Identity

Operator
Country
US
Launch date
2025-09-21
Launch site
AFETR
Launch vehicle
Mass (kg)
RCS (m²)

Purposes: comms

External: N2YO · Heavens-Above · Gunter

§ Orbital elements

Epoch: 2026-09-20T03:42:42.403680Z

Period
94.01 min
Inclination
53.1583°
Eccentricity
0.0000989
Mean motion
15.31717509 rev/d
Perigee alt
470.0 km
Apogee alt
471.4 km
Semi-major
6,848.8 km
B*
3.3309e-4
RAAN
161.2196°
Arg perigee
190.2068°
Mean anomaly
169.8914°
Rev number
5,703

§ Raw data

STARLINK-349301 65688U 25212N   26263.15465745  .00009991  00000+0  33309-3 0  99992 65688  53.1583 161.2196 0000989 190.2068 169.8914 15.31717509 57030

JSON: /api/v1/satellites/65688 · /tle

For live sub-satellite position, see the globe view (requires WebGL).

§ Visibility from observer

Set your observer location to see the next 7 days of passes ≥ 10°. The values pass through the URL so the page stays shareable.

No JS? Fill the form by hand. The geolocation button needs JavaScript.